Location: Goettingen
(51.5300°N, 9.9433°E)
Time: 21:57:44
(UTC+02:00)

N. Korean satellite - Pass Details

Date: 04 October 2021
Orbit: 450 x 495 km, 97.3° (Epoch: 23 October)

Event Time Altitude Azimuth Distance (km) Brightness Sun altitude
Rises 05:58:38 0° 23° (NNE) 2,557 10.7 -14.3°
Reaches altitude 10° 06:00:58 10° 37° (NE) 1,679 10.0 -14.0°
Maximum altitude 06:04:00 25° 94° (E) 1,029 9.1 -13.5°
Drops below altitude 10° 06:07:02 10° 151° (SSE) 1,683 9.5 -13.1°
Sets 06:09:23 0° 165° (SSE) 2,564 10.3 -12.7°
